Location: Newark
(41.9000°N, 12.4833°E)
Time: 03:38:28
(UTC+00:00)

NOAA 18 - Pass Details

Date: 19 May 2019
Orbit: 841 x 861 km, 99.1° (Epoch: 15 June)

Event Time Altitude Azimuth Distance (km) Brightness Sun altitude
Exits shadow 19:34:36 - 179° (S) 3,316 7.9 -11.2°
Reaches altitude 10° 19:36:46 10° 183° (S) 2,482 7.3 -11.5°
Maximum altitude 19:42:08 52° 260° (W) 1,062 6.0 -12.3°
Drops below altitude 10° 19:47:34 10° 336° (NNW) 2,507 8.8 -13.0°
Sets 19:50:01 0° 341° (NNW) 3,449 9.5 -13.4°
